sat.trackr.live / text

‹ back to catalog

STARLINK-6132

NORAD 57101 · 2023-090A

PAYLOAD ACTIVE UNKNOWN

§ Identity

Operator
Country
US
Launch date
2023-06-23
Launch site
AFETR
Launch vehicle
Mass (kg)
RCS (m²)

Purposes: comms

External: N2YO · Heavens-Above · Gunter

§ Orbital elements

Epoch: 2026-05-25T04:54:57.544416Z

Period
94.27 min
Inclination
43.0018°
Eccentricity
0.0001198
Mean motion
15.27576916 rev/d
Perigee alt
482.2 km
Apogee alt
483.9 km
Semi-major
6,861.2 km
B*
1.1305e-5
RAAN
209.5025°
Arg perigee
270.4484°
Mean anomaly
89.6230°
Rev number
16,203

§ Raw data

STARLINK-61321 57101U 23090A   26145.20483269  .00000049  00000+0  11305-4 0  99962 57101  43.0018 209.5025 0001198 270.4484  89.6230 15.27576916162032

JSON: /api/v1/satellites/57101 · /tle

For live sub-satellite position, see the globe view (requires WebGL).

§ Visibility from observer

Set your observer location to see the next 7 days of passes ≥ 10°. The values pass through the URL so the page stays shareable.

No JS? Fill the form by hand. The geolocation button needs JavaScript.